{"data":{"norad_id":66058,"epoch":"2026-09-20T01:00:44.023680Z","epoch_age_seconds":142640,"freshness":"FRESH","line1":"1 66058U 25235A   26263.04217620  .00029737  00000+0  88785-3 0  9999","line2":"2 66058  53.1593  55.6774 0001416  59.9097 300.2046 15.34396841 52778","mean_motion":15.34396841,"eccentricity":0.0001416,"inclination_deg":53.1593,"raan_deg":55.6774,"arg_perigee_deg":59.9097,"mean_anomaly_deg":300.2046,"bstar":0.00088785,"rev_number":5277,"period_min":93.847951294107,"perigee_km":461.74396512941,"apogee_km":463.68129374447,"semimajor_km":6840.8496294369,"source":"CELESTRAK","updated_at":"2026-09-21T09:00:35.774014Z"}}